Starlink 3847

operational
NORAD ID: 52333 Int'l Des: 2022-045 Owner: SPXS Country: US Constellation: starlink
LEOCIRCULAR

About Starlink 3847

Description loading...

Live Position

Loading 3D Globe...

Upcoming Passes

Altitude History

Altitude vs Time

uPlot chart will show altitude changes over time

Two-Line Element Set

1 52333U 22045C 26073.68913609 -.00003505 00000-0 -20222-3 0 9995
2 52333 53.2174 186.6758 0001160 97.6049 262.5075 15.08848169216381
Epoch: Mar 14, 2026 • Age: 17 hours

Current Status

Altitude 542.1 km
Velocity 7.59 km/s
Sub-Earth Point -8.30°S, 57.63°E
Launch Date Apr 29, 2022
Age 3.8 years
Type internet

Technical Details

Classification Payload
Mass 297.00 kg
Dry Mass 275.00 kg
Total Mass 297.00 kg
Length 0.20 m
Diameter 2.80 m
Span 9.00 m
Shape Box + pan
Manufacturer SPXS
Bus Type Starlink
Phase Status In Orbit
Owner/State SPXS/US

Large Constellations

Loading constellations...